TimeBST,TemperatureF,Dew PointF,Humidity,Sea Level PressureIn,VisibilityMPH,Wind Direction,Wind SpeedMPH,Gust SpeedMPH,PrecipitationIn,Events,Conditions,WindDirDegrees,DateUTC
1:00 AM,60,56,82,29.80,9,SSW,24.2,,,,Mostly Cloudy,200,2012-10-05 00:00:00
3:50 AM,60.8,57.2,88,29.77,6.2,SW,25.3,-,N/A,,Partly Cloudy,220,2012-10-05 02:50:00
4:00 AM,61,57,84,29.78,11,SSW,23.0,,,,Mostly Cloudy,210,2012-10-05 03:00:00
4:20 AM,60.8,57.2,88,29.77,6.2,SW,19.6,-,N/A,,Partly Cloudy,220,2012-10-05 03:20:00
4:50 AM,62.6,59.0,88,29.77,6.2,SW,19.6,-,N/A,,Mostly Cloudy,220,2012-10-05 03:50:00
5:20 AM,60.8,57.2,88,29.77,6.2,SW,24.2,-,N/A,,Mostly Cloudy,220,2012-10-05 04:20:00
5:50 AM,62.6,57.2,82,29.77,6.2,SW,23.0,-,N/A,,Partly Cloudy,230,2012-10-05 04:50:00
6:20 AM,62.6,57.2,82,29.80,6.2,SW,24.2,-,N/A,,Mostly Cloudy,230,2012-10-05 05:20:00
6:50 AM,62.6,57.2,82,29.80,6.2,SW,21.9,-,N/A,,Mostly Cloudy,230,2012-10-05 05:50:00
7:00 AM,62,58,81,29.81,11,SW,25.3,,,,Mostly Cloudy,230,2012-10-05 06:00:00
7:20 AM,62.6,57.2,82,29.80,6.2,SW,25.3,-,N/A,,Mostly Cloudy,230,2012-10-05 06:20:00
7:50 AM,62.6,59.0,88,29.80,6.2,SW,23.0,-,N/A,,Mostly Cloudy,230,2012-10-05 06:50:00
8:20 AM,62.6,59.0,88,29.80,6.2,WSW,21.9,-,N/A,,Mostly Cloudy,240,2012-10-05 07:20:00
8:50 AM,62.6,59.0,88,29.83,6.2,WSW,24.2,-,N/A,,Light Drizzle,240,2012-10-05 07:50:00
9:20 AM,62.6,59.0,88,29.83,6.2,WSW,26.5,-,N/A,,Mostly Cloudy,250,2012-10-05 08:20:00
9:50 AM,62.6,59.0,88,29.86,6.2,WSW,21.9,-,N/A,,Mostly Cloudy,250,2012-10-05 08:50:00
10:00 AM,62,59,86,29.86,9,WSW,24.2,,,Rain,Light Rain,240,2012-10-05 09:00:00
10:20 AM,62.6,59.0,88,29.86,6.2,WSW,21.9,-,N/A,,Mostly Cloudy,240,2012-10-05 09:20:00
10:50 AM,62.6,59.0,88,29.86,6.2,WSW,19.6,-,N/A,,Mostly Cloudy,240,2012-10-05 09:50:00
11:20 AM,62.6,59.0,88,29.86,6.2,WSW,18.4,-,N/A,,Mostly Cloudy,240,2012-10-05 10:20:00
11:50 AM,64.4,60.8,88,29.86,6.2,WSW,18.4,-,N/A,,Mostly Cloudy,240,2012-10-05 10:50:00
12:20 PM,64.4,60.8,88,29.86,6.2,WSW,20.7,-,N/A,,Mostly Cloudy,240,2012-10-05 11:20:00
12:50 PM,64.4,59.0,83,29.89,6.2,SW,20.7,-,N/A,,Mostly Cloudy,230,2012-10-05 11:50:00
1:00 PM,64,59,79,29.88,11,SW,17.3,,,,Partly Cloudy,230,2012-10-05 12:00:00
1:20 PM,64.4,60.8,88,29.89,6.2,WSW,15.0,-,N/A,,Mostly Cloudy,250,2012-10-05 12:20:00
1:50 PM,64.4,60.8,88,29.89,6.2,WSW,12.7,-,N/A,,Mostly Cloudy,250,2012-10-05 12:50:00
2:20 PM,64.4,60.8,88,29.89,6.2,WSW,11.5,-,N/A,,Mostly Cloudy,240,2012-10-05 13:20:00
2:50 PM,64.4,59.0,83,29.89,6.2,WSW,11.5,-,N/A,,Mostly Cloudy,240,2012-10-05 13:50:00
3:20 PM,64.4,59.0,83,29.89,6.2,WSW,11.5,-,N/A,,Mostly Cloudy,240,2012-10-05 14:20:00
3:50 PM,64.4,59.0,83,29.89,6.2,WSW,11.5,-,N/A,,Mostly Cloudy,240,2012-10-05 14:50:00
4:00 PM,63,59,81,29.88,19,SW,11.5,,,,Mostly Cloudy,230,2012-10-05 15:00:00
4:20 PM,62.6,59.0,88,29.86,6.2,WSW,10.4,-,N/A,,Mostly Cloudy,240,2012-10-05 15:20:00
4:50 PM,62.6,59.0,88,29.89,6.2,WSW,10.4,-,N/A,,Mostly Cloudy,250,2012-10-05 15:50:00
5:20 PM,62.6,59.0,88,29.89,6.2,WSW,10.4,-,N/A,,Mostly Cloudy,240,2012-10-05 16:20:00
5:50 PM,62.6,59.0,88,29.89,6.2,WSW,6.9,-,N/A,,Mostly Cloudy,240,2012-10-05 16:50:00
6:20 PM,62.6,59.0,88,29.89,6.2,WSW,12.7,-,N/A,,Mostly Cloudy,240,2012-10-05 17:20:00
6:50 PM,62.6,59.0,88,29.89,6.2,WSW,11.5,-,N/A,,Mostly Cloudy,240,2012-10-05 17:50:00
7:00 PM,62,58,84,29.88,22,WSW,13.8,,,,Mostly Cloudy,240,2012-10-05 18:00:00
7:20 PM,62.6,57.2,82,29.86,6.2,SW,10.4,-,N/A,,Mostly Cloudy,230,2012-10-05 18:20:00
7:50 PM,62.6,57.2,82,29.86,6.2,SW,11.5,-,N/A,,Scattered Clouds,220,2012-10-05 18:50:00
8:20 PM,60.8,57.2,88,29.86,6.2,SSW,13.8,-,N/A,,Scattered Clouds,210,2012-10-05 19:20:00
8:50 PM,60.8,57.2,88,29.86,6.2,SSW,13.8,-,N/A,,Partly Cloudy,210,2012-10-05 19:50:00
9:20 PM,60.8,57.2,88,29.86,6.2,SSW,13.8,-,N/A,,Partly Cloudy,210,2012-10-05 20:20:00
9:50 PM,60.8,57.2,88,29.86,6.2,South,12.7,-,N/A,,Mostly Cloudy,190,2012-10-05 20:50:00
10:00 PM,61,58,85,29.87,19,SSW,13.8,,,,Mostly Cloudy,200,2012-10-05 21:00:00
10:20 PM,60.8,57.2,88,29.86,6.2,South,16.1,-,N/A,,Scattered Clouds,190,2012-10-05 21:20:00
11:20 PM,60.8,57.2,88,29.83,6.2,SSW,12.7,-,N/A,,Mostly Cloudy,210,2012-10-05 22:20:00